User: anonymous   Login
Location: Cogollal
(10.0582°N, 67.8466°W)
Time: 22:16:55
(UTC+00:00)
Language:

Cosmos 1603 - Orbit

View from above orbital plane
View from above orbital plane
View from above satellite
View from above satellite

Ground track
Ground track

The orbit data is extracted from the following two-line orbital elements,

1 15333U 84106A   24170.30016301  .00000397  00000-0  23180-3 0  9998
2 15333  71.0253 135.1051 0021576 271.5092  88.3559 14.14331244 49679
Epoch (UTC): 18 June 2024 07:12:14
Eccentricity: 0.0021576
inclination: 71.0253°
perigee height: 829 km
apogee height: 860 km
right ascension of ascending node: 135.1051°
argument of perigee: 271.5092°
revolutions per day: 14.14331244
mean anomaly at epoch: 88.3559°
orbit number at epoch: 4967

The dashed part of the orbit path shows where the satellite is in the earth's shadow,  

DLR